Simultaneous Nadir Overpasses (SNOs) Predictions

Prediction of SNOs near US between AQUA and NPP Satellite Orbit:

Table of predicted SNOs near US for the next 10.0 days since TLE Epoch: 11/29/2013
Index Date (AQUA) Time (AQUA) AQUA Lat,Lon Date (NPP) Time (NPP) NPP Lat,Lon Distance(km) Time Diff (sec)
1 12/02/2013 06:30:59 46.87, -65.02 12/02/2013 06:32:02 47.22, -66.78 138.83 63
2 12/02/2013 08:09:01 49.90, -88.53 12/02/2013 08:12:38 50.33, -90.82 169.72 217
3 12/02/2013 09:47:54 49.91,-113.25 12/02/2013 09:54:05 50.50,-116.11 214.15 371
4 12/04/2013 19:07:11 49.98, -92.74 12/04/2013 19:02:59 49.68, -94.47 128.57 252
5 12/04/2013 20:46:04 49.98,-117.46 12/04/2013 20:44:27 49.56,-119.79 173.85 97
6 12/07/2013 08:35:52 20.03,-102.06 12/07/2013 08:27:49 20.01,-102.05 2.70 483
7 12/07/2013 10:11:58
